Time,TemperatureF,DewpointF,PressureIn,WindDirection,WindDirectionDegrees,WindSpeedMPH,WindSpeedGustMPH,Humidity,HourlyPrecipIn,Conditions,Clouds,dailyrainin,SoftwareType,DateUTC
2013-04-16 00:32:00,40.0,-99.9,-100.00,WSW,241,4.0,7.0,-999,-99.99,,,-99.99,,2013-04-16 07:32:00,
2013-04-16 00:42:00,40.0,-99.9,-100.00,WSW,241,4.0,7.0,-999,-99.99,,,-99.99,,2013-04-16 07:42:00,
2013-04-16 00:53:00,40.0,-99.9,-100.00,SW,236,5.0,6.0,-999,-99.99,,,-99.99,,2013-04-16 07:53:00,
2013-04-16 01:02:00,40.0,-99.9,-100.00,SW,236,5.0,6.0,-999,-99.99,,,-99.99,,2013-04-16 08:02:00,
2013-04-16 01:32:00,42.0,-99.9,-100.00,SW,218,2.0,3.0,-999,-99.99,,,-99.99,,2013-04-16 08:32:00,
2013-04-16 01:42:00,42.0,-99.9,-100.00,SW,218,2.0,3.0,-999,-99.99,,,-99.99,,2013-04-16 08:42:00,
2013-04-16 01:52:00,42.0,-99.9,-100.00,SW,218,2.0,3.0,-999,-99.99,,,-99.99,,2013-04-16 08:52:00,
2013-04-16 02:33:00,41.0,-99.9,-100.00,SW,236,4.0,4.0,-999,-99.99,,,-99.99,,2013-04-16 09:33:00,
2013-04-16 02:43:00,41.0,-99.9,-100.00,SW,236,4.0,4.0,-999,-99.99,,,-99.99,,2013-04-16 09:43:00,
2013-04-16 02:53:00,41.0,-99.9,-100.00,WSW,253,5.0,6.0,-999,-99.99,,,-99.99,,2013-04-16 09:53:00,
2013-04-16 03:03:00,43.0,-99.9,-100.00,West,264,2.0,7.0,-999,-99.99,,,-99.99,,2013-04-16 10:03:00,
2013-04-16 03:13:00,43.0,-99.9,-100.00,West,264,2.0,7.0,-999,-99.99,,,-99.99,,2013-04-16 10:13:00,
2013-04-16 03:23:00,43.0,-99.9,-100.00,West,264,2.0,7.0,-999,-99.99,,,-99.99,,2013-04-16 10:23:00,
2013-04-16 03:33:00,41.0,-99.9,-100.00,West,263,1.0,5.0,-999,-99.99,,,-99.99,,2013-04-16 10:33:00,
2013-04-16 03:43:00,41.0,-99.9,-100.00,West,263,1.0,5.0,-999,-99.99,,,-99.99,,2013-04-16 10:43:00,
2013-04-16 03:53:00,41.0,-99.9,-100.00,West,263,1.0,5.0,-999,-99.99,,,-99.99,,2013-04-16 10:53:00,
2013-04-16 04:22:00,41.0,-99.9,-100.00,SW,233,1.0,3.0,-999,-99.99,,,-99.99,,2013-04-16 11:22:00,
2013-04-16 04:32:00,39.0,-99.9,-100.00,WSW,240,6.0,6.0,-999,-99.99,,,-99.99,,2013-04-16 11:32:00,
2013-04-16 04:42:00,39.0,-99.9,-100.00,WSW,240,6.0,6.0,-999,-99.99,,,-99.99,,2013-04-16 11:42:00,
2013-04-16 04:53:00,39.0,-99.9,-100.00,WSW,240,6.0,6.0,-999,-99.99,,,-99.99,,2013-04-16 11:53:00,
2013-04-16 05:00:00,39.0,-99.9,-100.00,WNW,283,2.0,4.0,-999,-99.99,,,-99.99,,2013-04-16 12:00:00,
2013-04-16 05:02:00,40.0,-99.9,-100.00,SW,221,2.0,4.0,-999,-99.99,,,-99.99,,2013-04-16 12:02:00,
2013-04-16 05:12:00,40.0,-99.9,-100.00,SW,221,2.0,4.0,-999,-99.99,,,-99.99,,2013-04-16 12:12:00,
2013-04-16 05:22:00,40.0,-99.9,-100.00,SW,222,4.0,6.0,-999,-99.99,,,-99.99,,2013-04-16 12:22:00,
2013-04-16 05:32:00,39.0,-99.9,-100.00,WNW,283,2.0,4.0,-999,-99.99,,,-99.99,,2013-04-16 12:32:00,
2013-04-16 05:42:00,39.0,-99.9,-100.00,WNW,283,2.0,4.0,-999,-99.99,,,-99.99,,2013-04-16 12:42:00,
2013-04-16 05:52:00,39.0,-99.9,-100.00,WNW,283,2.0,4.0,-999,-99.99,,,-99.99,,2013-04-16 12:52:00,
2013-04-16 06:00:00,37.0,-99.9,-100.00,SW,231,3.0,4.0,-999,-99.99,,,-99.99,,2013-04-16 13:00:00,
2013-04-16 06:32:00,37.0,-99.9,-100.00,WSW,238,3.0,3.0,-999,-99.99,,,-99.99,,2013-04-16 13:32:00,
2013-04-16 06:42:00,37.0,-99.9,-100.00,WSW,238,3.0,3.0,-999,-99.99,,,-99.99,,2013-04-16 13:42:00,
2013-04-16 06:52:00,37.0,-99.9,-100.00,SW,231,3.0,4.0,-999,-99.99,,,-99.99,,2013-04-16 13:52:00,
2013-04-16 07:00:00,36.0,-99.9,-100.00,West,278,4.0,6.0,-999,-99.99,,,-99.99,,2013-04-16 14:00:00,
2013-04-16 07:32:00,36.0,-99.9,-100.00,West,278,4.0,6.0,-999,-99.99,,,-99.99,,2013-04-16 14:32:00,
2013-04-16 07:42:00,36.0,-99.9,-100.00,West,278,4.0,6.0,-999,-99.99,,,-99.99,,2013-04-16 14:42:00,
2013-04-16 07:52:00,36.0,-99.9,-100.00,West,278,4.0,6.0,-999,-99.99,,,-99.99,,2013-04-16 14:52:00,
2013-04-16 08:00:00,40.0,-99.9,-100.00,WSW,253,3.0,6.0,-999,-99.99,,,-99.99,,2013-04-16 15:00:00,
2013-04-16 08:22:00,39.0,-99.9,-100.00,SW,231,4.0,5.0,-999,-99.99,,,-99.99,,2013-04-16 15:22:00,
2013-04-16 08:33:00,40.0,-99.9,-100.00,WSW,253,3.0,6.0,-999,-99.99,,,-99.99,,2013-04-16 15:33:00,
2013-04-16 08:43:00,40.0,-99.9,-100.00,WSW,253,3.0,6.0,-999,-99.99,,,-99.99,,2013-04-16 15:43:00,
2013-04-16 08:53:00,40.0,-99.9,-100.00,WSW,253,3.0,6.0,-999,-99.99,,,-99.99,,2013-04-16 15:53:00,
2013-04-16 09:33:00,40.0,-99.9,-100.00,SW,235,4.0,4.0,-999,-99.99,,,-99.99,,2013-04-16 16:33:00,
2013-04-16 09:42:00,40.0,-99.9,-100.00,SW,235,4.0,4.0,-999,-99.99,,,-99.99,,2013-04-16 16:42:00,
2013-04-16 09:53:00,40.0,-99.9,-100.00,West,279,4.0,5.0,-999,-99.99,,,-99.99,,2013-04-16 16:53:00,
2013-04-16 10:02:00,43.0,-99.9,-100.00,West,268,2.0,4.0,-999,-99.99,,,-99.99,,2013-04-16 17:02:00,
2013-04-16 10:12:00,43.0,-99.9,-100.00,West,268,2.0,4.0,-999,-99.99,,,-99.99,,2013-04-16 17:12:00,
2013-04-16 10:22:00,43.0,-99.9,-100.00,West,268,2.0,4.0,-999,-99.99,,,-99.99,,2013-04-16 17:22:00,
2013-04-16 10:33:00,45.0,-99.9,-100.00,West,265,1.0,4.0,-999,-99.99,,,-99.99,,2013-04-16 17:33:00,
2013-04-16 10:44:00,45.0,-99.9,-100.00,West,265,1.0,4.0,-999,-99.99,,,-99.99,,2013-04-16 17:44:00,
2013-04-16 10:53:00,45.0,-99.9,-100.00,West,265,1.0,4.0,-999,-99.99,,,-99.99,,2013-04-16 17:53:00,
2013-04-16 11:32:00,45.0,-99.9,-100.00,NW,310,1.0,4.0,-999,-99.99,,,-99.99,,2013-04-16 18:32:00,
2013-04-16 11:43:00,45.0,-99.9,-100.00,NW,310,1.0,4.0,-999,-99.99,,,-99.99,,2013-04-16 18:43:00,
2013-04-16 11:52:00,45.0,-99.9,-100.00,NW,310,1.0,4.0,-999,-99.99,,,-99.99,,2013-04-16 18:52:00,
2013-04-16 12:32:00,51.0,-99.9,-100.00,ENE,60,3.0,6.0,-999,-99.99,,,-99.99,,2013-04-16 19:32:00,
2013-04-16 12:43:00,51.0,-99.9,-100.00,ENE,60,3.0,6.0,-999,-99.99,,,-99.99,,2013-04-16 19:43:00,
2013-04-16 12:52:00,51.0,-99.9,-100.00,ENE,60,3.0,6.0,-999,-99.99,,,-99.99,,2013-04-16 19:52:00,
2013-04-16 13:02:00,50.0,-99.9,-100.00,NNE,24,2.0,4.0,-999,-99.99,,,-99.99,,2013-04-16 20:02:00,
2013-04-16 13:13:00,50.0,-99.9,-100.00,NNE,24,2.0,4.0,-999,-99.99,,,-99.99,,2013-04-16 20:13:00,
2013-04-16 13:22:00,50.0,-99.9,-100.00,NE,37,3.0,3.0,-999,-99.99,,,-99.99,,2013-04-16 20:22:00,
2013-04-16 13:32:00,52.0,-99.9,-100.00,East,81,3.0,4.0,-999,-99.99,,,-99.99,,2013-04-16 20:32:00,
2013-04-16 13:42:00,52.0,-99.9,-100.00,East,81,3.0,4.0,-999,-99.99,,,-99.99,,2013-04-16 20:42:00,
2013-04-16 13:52:00,52.0,-99.9,-100.00,East,81,3.0,4.0,-999,-99.99,,,-99.99,,2013-04-16 20:52:00,
2013-04-16 14:00:00,55.0,-99.9,-100.00,West,275,0.0,3.0,-999,-99.99,,,-99.99,,2013-04-16 21:00:00,
2013-04-16 14:02:00,53.0,-99.9,-100.00,SW,225,2.0,2.0,-999,-99.99,,,-99.99,,2013-04-16 21:02:00,
2013-04-16 14:12:00,53.0,-99.9,-100.00,SW,225,2.0,2.0,-999,-99.99,,,-99.99,,2013-04-16 21:12:00,
2013-04-16 14:33:00,55.0,-99.9,-100.00,West,275,0.0,3.0,-999,-99.99,,,-99.99,,2013-04-16 21:33:00,
2013-04-16 14:43:00,55.0,-99.9,-100.00,West,275,0.0,3.0,-999,-99.99,,,-99.99,,2013-04-16 21:43:00,
2013-04-16 14:53:00,55.0,-99.9,-100.00,West,275,0.0,3.0,-999,-99.99,,,-99.99,,2013-04-16 21:53:00,
2013-04-16 15:23:00,54.0,-99.9,-100.00,NNE,27,1.0,5.0,-999,-99.99,,,-99.99,,2013-04-16 22:23:00,
2013-04-16 15:33:00,52.0,-99.9,-100.00,WNW,288,4.0,4.0,-999,-99.99,,,-99.99,,2013-04-16 22:33:00,
2013-04-16 15:43:00,52.0,-99.9,-100.00,WNW,288,4.0,4.0,-999,-99.99,,,-99.99,,2013-04-16 22:43:00,
2013-04-16 15:52:00,52.0,-99.9,-100.00,WNW,288,4.0,4.0,-999,-99.99,,,-99.99,,2013-04-16 22:52:00,
2013-04-16 16:32:00,54.0,-99.9,-100.00,NNE,12,3.0,4.0,-999,-99.99,,,-99.99,,2013-04-16 23:32:00,
2013-04-16 16:43:00,54.0,-99.9,-100.00,NNE,12,3.0,4.0,-999,-99.99,,,-99.99,,2013-04-16 23:43:00,
2013-04-16 16:52:00,54.0,-99.9,-100.00,NNE,12,3.0,4.0,-999,-99.99,,,-99.99,,2013-04-16 23:52:00,
2013-04-16 17:02:00,55.0,-99.9,-100.00,NNW,334,3.0,5.0,-999,-99.99,,,-99.99,,2013-04-17 00:02:00,
2013-04-16 17:12:00,55.0,-99.9,-100.00,NNW,334,3.0,5.0,-999,-99.99,,,-99.99,,2013-04-17 00:12:00,
2013-04-16 17:32:00,55.0,-99.9,-100.00,North,1,2.0,4.0,-999,-99.99,,,-99.99,,2013-04-17 00:32:00,
2013-04-16 17:42:00,55.0,-99.9,-100.00,North,1,2.0,4.0,-999,-99.99,,,-99.99,,2013-04-17 00:42:00,
2013-04-16 17:52:00,55.0,-99.9,-100.00,North,1,2.0,4.0,-999,-99.99,,,-99.99,,2013-04-17 00:52:00,
2013-04-16 18:00:00,51.0,-99.9,-100.00,West,271,11.0,11.0,-999,-99.99,,,-99.99,,2013-04-17 01:00:00,
2013-04-16 18:22:00,54.0,-99.9,-100.00,WNW,297,3.0,5.0,-999,-99.99,,,-99.99,,2013-04-17 01:22:00,
2013-04-16 18:32:00,51.0,-99.9,-100.00,West,271,11.0,11.0,-999,-99.99,,,-99.99,,2013-04-17 01:32:00,
2013-04-16 18:42:00,51.0,-99.9,-100.00,West,271,11.0,11.0,-999,-99.99,,,-99.99,,2013-04-17 01:42:00,
2013-04-16 18:52:00,51.0,-99.9,-100.00,West,271,11.0,11.0,-999,-99.99,,,-99.99,,2013-04-17 01:52:00,
2013-04-16 19:32:00,51.0,-99.9,-100.00,SSW,204,6.0,8.0,-999,-99.99,,,-99.99,,2013-04-17 02:32:00,
2013-04-16 19:42:00,51.0,-99.9,-100.00,SSW,204,6.0,8.0,-999,-99.99,,,-99.99,,2013-04-17 02:42:00,
2013-04-16 19:53:00,51.0,-99.9,-100.00,SSW,204,6.0,8.0,-999,-99.99,,,-99.99,,2013-04-17 02:53:00,
2013-04-16 20:33:00,51.0,-99.9,-100.00,SW,229,6.0,7.0,-999,-99.99,,,-99.99,,2013-04-17 03:33:00,
2013-04-16 20:43:00,51.0,-99.9,-100.00,SW,229,6.0,7.0,-999,-99.99,,,-99.99,,2013-04-17 03:43:00,
2013-04-16 20:53:00,51.0,-99.9,-100.00,SW,229,6.0,7.0,-999,-99.99,,,-99.99,,2013-04-17 03:53:00,
2013-04-16 21:03:00,51.0,-99.9,-100.00,WNW,296,2.0,4.0,-999,-99.99,,,-99.99,,2013-04-17 04:03:00,
2013-04-16 21:13:00,51.0,-99.9,-100.00,WNW,296,2.0,4.0,-999,-99.99,,,-99.99,,2013-04-17 04:13:00,
2013-04-16 21:23:00,49.0,-99.9,-100.00,ESE,103,1.0,3.0,-999,-99.99,,,-99.99,,2013-04-17 04:23:00,
2013-04-16 21:33:00,48.0,-99.9,-100.00,South,185,0.0,3.0,-999,-99.99,,,-99.99,,2013-04-17 04:33:00,
2013-04-16 21:43:00,48.0,-99.9,-100.00,South,185,0.0,3.0,-999,-99.99,,,-99.99,,2013-04-17 04:43:00,
2013-04-16 21:53:00,47.0,-99.9,-100.00,South,182,2.0,3.0,-999,-99.99,,,-99.99,,2013-04-17 04:53:00,
2013-04-16 22:03:00,47.0,-99.9,-100.00,South,182,2.0,3.0,-999,-99.99,,,-99.99,,2013-04-17 05:03:00,
2013-04-16 22:12:00,47.0,-99.9,-100.00,South,182,2.0,3.0,-999,-99.99,,,-99.99,,2013-04-17 05:12:00,
2013-04-16 22:20:00,44.0,-99.9,-100.00,West,267,1.0,6.0,-999,-99.99,,,-99.99,,2013-04-17 05:20:00,
2013-04-16 22:32:00,46.0,-99.9,-100.00,SW,236,2.0,5.0,-999,-99.99,,,-99.99,,2013-04-17 05:32:00,
2013-04-16 22:43:00,46.0,-99.9,-100.00,SW,236,2.0,5.0,-999,-99.99,,,-99.99,,2013-04-17 05:43:00,
2013-04-16 22:52:00,46.0,-99.9,-100.00,SW,236,2.0,5.0,-999,-99.99,,,-99.99,,2013-04-17 05:52:00,
2013-04-16 23:02:00,44.0,-99.9,-100.00,West,267,1.0,6.0,-999,-99.99,,,-99.99,,2013-04-17 06:02:00,
2013-04-16 23:12:00,44.0,-99.9,-100.00,West,267,1.0,6.0,-999,-99.99,,,-99.99,,2013-04-17 06:12:00,
2013-04-16 23:20:00,42.0,-99.9,-100.00,SW,217,4.0,7.0,-999,-99.99,,,-99.99,,2013-04-17 06:20:00,
2013-04-16 23:32:00,43.0,-99.9,-100.00,South,191,4.0,6.0,-999,-99.99,,,-99.99,,2013-04-17 06:32:00,
2013-04-16 23:42:00,43.0,-99.9,-100.00,South,191,4.0,6.0,-999,-99.99,,,-99.99,,2013-04-17 06:42:00,
2013-04-16 23:52:00,43.0,-99.9,-100.00,South,191,4.0,6.0,-999,-99.99,,,-99.99,,2013-04-17 06:52:00,